{"data":{"norad_id":55760,"intl_designator":"2023-028V","name":"STARLINK-5532","alt_names":[],"object_type":"PAYLOAD","status":"ACTIVE","operator":null,"country":"US","launch_date":"2023-03-03","launch_site_code":"AFWTR","launch_vehicle":null,"mission":null,"orbit_class":"UNKNOWN","rcs_meters":null,"size_class":null,"mass_kg":null,"dimensions":null,"purposes":["comms"],"wikipedia_slug":null,"has_3d_model":false,"image_url":null,"decayed_at":null,"tle_current":{"epoch":"2026-05-25T04:26:08.867904Z","epoch_age_seconds":66063,"freshness":"FRESH","line1":"1 55760U 23028V   26145.18482486 -.00000120  00000+0 -22716-5 0  9994","line2":"2 55760  70.0010  51.3765 0002689 268.0963  91.9888 14.98332629177509","mean_motion":14.98332629,"eccentricity":0.0002689,"inclination_deg":70.001,"raan_deg":51.3765,"arg_perigee_deg":268.0963,"mean_anomaly_deg":91.9888,"bstar":-2.2716e-6,"rev_number":17750,"period_min":96.106830494713,"perigee_km":570.17885630844,"apogee_km":573.9166656729,"semimajor_km":6950.1847609907,"source":"CELESTRAK","updated_at":"2026-05-25T13:38:17.881303Z"}}}